Weather History for Storm Lake, IA

Change the Weather History Date:

Monday, May 20, 2013

  Actual Average Record
Temperature  
Mean Temperature 63 °F -  
Max Temperature 71 °F 69 °F 87 °F (2007)
Min Temperature 55 °F 49 °F 37 °F (1997)
Degree Days  
Heating Degree Days 2    
Growing Degree Days 13 (Base 50)    
Moisture  
Dew Point 57 °F    
Average Humidity 82    
Maximum Humidity 100    
Minimum Humidity 60    
Precipitation  
Precipitation 0.01 in - - ()
Sea Level Pressure  
Sea Level Pressure 29.55 in    
Wind  
Wind Speed 13 mph (SSW)    
Max Wind Speed 24 mph    
Max Gust Speed 33 mph    
Visibility 8 miles    
Events Rain    
Averages and records for this station are not official NWS values.
T = Trace of Precipitation, MM = Missing Value Source: NWS Daily Summary

Daily Weather History Graph

Daily Weather History Graph

Search for Another Location

Airport:

Trip Planner

Search our weather history database for the weather conditions in past years. The results will help you decide how hot, cold, wet, or windy it might be!

Date:

Astronomy

May. 20, 2013 Rise Set
Actual Time 5:53 AM CDT 8:41 PM CDT
Civil Twilight 5:20 AM CDT 9:14 PM CDT
Nautical Twilight 4:39 AM CDT 9:56 PM CDT
Astronomical Twilight 3:51 AM CDT 10:44 PM CDT
Moon 3:44 PM CDT (5/20) 2:55 AM CDT (5/20)
Length of Visible Light 15h 53m
Length of Day
14h 47m
Waxing Gibbous, 75% of the Moon is Illuminated
May 20
Waxing Gibbous
May 24
Full
May 31
Last Quarter
Jun 8
New
Jun 16
First Quarter

Hourly Weather History & Observations

Time (CDT) Temp. Dew Point Humidity Pressure Visibility Wind Dir Wind Speed Gust Speed Precip Events Conditions
12:15 AM 60.8 °F 57.2 °F 88% 29.53 in 10.0 mi WSW 8.1 mph - N/A   Scattered Clouds
12:35 AM 60.8 °F 57.2 °F 88% 29.50 in 10.0 mi West 3.5 mph - N/A   Clear
12:55 AM 59.0 °F 57.2 °F 94% 29.51 in 10.0 mi SSE 5.8 mph - N/A   Clear
1:15 AM 59.0 °F 57.2 °F 94% 29.51 in 10.0 mi SE 9.2 mph - N/A   Scattered Clouds
1:35 AM 59.0 °F 57.2 °F 94% 29.53 in 10.0 mi South 10.4 mph - N/A   Mostly Cloudy
1:55 AM 57.2 °F 57.2 °F 100% 29.53 in 10.0 mi South 15.0 mph - N/A   Partly Cloudy
2:15 AM 57.2 °F 55.4 °F 94% 29.53 in 10.0 mi South 11.5 mph - N/A   Clear
2:35 AM 57.2 °F 55.4 °F 94% 29.54 in 10.0 mi South 9.2 mph - N/A   Clear
2:55 AM 57.2 °F 55.4 °F 94% 29.55 in 10.0 mi SSW 9.2 mph - N/A   Clear
3:15 AM 57.2 °F 55.4 °F 94% 29.54 in 10.0 mi SSW 9.2 mph - N/A   Clear
3:35 AM 55.4 °F 55.4 °F 100% 29.53 in 10.0 mi SW 8.1 mph - N/A   Clear
3:55 AM 55.4 °F 55.4 °F 100% 29.53 in 10.0 mi SW 8.1 mph - N/A   Clear
4:35 AM 55.4 °F 55.4 °F 100% 29.52 in 8.0 mi SSW 9.2 mph - N/A   Partly Cloudy
4:55 AM 57.2 °F 57.2 °F 100% 29.52 in 9.0 mi South 12.7 mph - N/A   Mostly Cloudy
5:15 AM 57.2 °F 57.2 °F 100% 29.52 in 7.0 mi South 12.7 mph - N/A   Overcast
5:35 AM 57.2 °F 57.2 °F 100% 29.53 in 5.0 mi South 11.5 mph - N/A   Overcast
5:55 AM 57.2 °F 57.2 °F 100% 29.53 in 4.0 mi South 11.5 mph - N/A   Overcast
6:15 AM 57.2 °F 57.2 °F 100% 29.53 in 4.0 mi South 12.7 mph - N/A   Overcast
6:35 AM 57.2 °F 57.2 °F 100% 29.53 in 4.0 mi South 12.7 mph 18.4 mph N/A   Overcast
7:15 AM 59.0 °F 59.0 °F 100% 29.54 in 2.5 mi South 13.8 mph - N/A   Overcast
7:35 AM 59.0 °F 59.0 °F 100% 29.54 in 3.0 mi South 15.0 mph - N/A   Overcast
7:55 AM 59.0 °F 59.0 °F 100% 29.53 in 3.0 mi SSW 16.1 mph - N/A   Overcast
8:15 AM 59.0 °F 59.0 °F 100% 29.54 in 3.0 mi SSW 12.7 mph - N/A   Overcast
8:35 AM 59.0 °F 59.0 °F 100% 29.54 in 4.0 mi SSW 17.3 mph - N/A   Overcast
8:55 AM 60.8 °F 59.0 °F 94% 29.54 in 4.0 mi SSW 16.1 mph 23.0 mph N/A   Overcast
9:15 AM 59.0 °F 59.0 °F 100% 29.55 in 4.0 mi SW 18.4 mph - N/A   Overcast
9:35 AM 59.0 °F 57.2 °F 94% 29.55 in 4.0 mi SW 20.7 mph 26.5 mph N/A   Overcast
10:35 AM 60.8 °F 57.2 °F 88% 29.57 in 8.0 mi West 18.4 mph 27.6 mph N/A   Overcast
10:55 AM 60.8 °F 57.2 °F 88% 29.58 in 9.0 mi WSW 21.9 mph 28.8 mph N/A   Overcast
11:15 AM 62.6 °F 57.2 °F 82% 29.58 in 10.0 mi WSW 21.9 mph - N/A   Overcast
11:35 AM 64.4 °F 57.2 °F 77% 29.59 in 10.0 mi WSW 19.6 mph 29.9 mph N/A   Mostly Cloudy
11:55 AM 64.4 °F 57.2 °F 77% 29.59 in 10.0 mi WSW 18.4 mph 26.5 mph N/A   Scattered Clouds
12:15 PM 66.2 °F 57.2 °F 73% 29.60 in 10.0 mi SW 20.7 mph 27.6 mph N/A   Mostly Cloudy
12:35 PM 66.2 °F 55.4 °F 68% 29.60 in 10.0 mi SW 23.0 mph 33.4 mph N/A   Mostly Cloudy
1:15 PM 68.0 °F 55.4 °F 64% 29.60 in 10.0 mi SW 17.3 mph 28.8 mph N/A   Mostly Cloudy
1:55 PM 68.0 °F 57.2 °F 68% 29.60 in 10.0 mi SW 21.9 mph - N/A   Clear
2:15 PM 68.0 °F 55.4 °F 64% 29.60 in 10.0 mi SW 24.2 mph 29.9 mph N/A   Mostly Cloudy
2:35 PM 68.0 °F 55.4 °F 64% 29.60 in 10.0 mi SW 21.9 mph - N/A   Overcast
2:55 PM 66.2 °F 55.4 °F 68% 29.60 in 10.0 mi SSW 21.9 mph 29.9 mph N/A   Overcast
3:15 PM 66.2 °F 55.4 °F 68% 29.60 in 10.0 mi SSW 15.0 mph 23.0 mph N/A   Mostly Cloudy
3:35 PM 69.8 °F 57.2 °F 64% 29.59 in - SSW 24.2 mph - N/A   Mostly Cloudy
3:55 PM 71.6 °F 57.2 °F 60% 29.58 in 10.0 mi SSW 23.0 mph 29.9 mph N/A   Mostly Cloudy
4:15 PM 69.8 °F 57.2 °F 64% 29.57 in 10.0 mi SSW 23.0 mph 29.9 mph N/A   Mostly Cloudy
4:35 PM 69.8 °F 57.2 °F 64% 29.57 in 10.0 mi SSW 23.0 mph - N/A   Mostly Cloudy
4:55 PM 69.8 °F 57.2 °F 64% 29.56 in 10.0 mi SSW 19.6 mph 28.8 mph N/A   Mostly Cloudy
5:15 PM 71.6 °F 57.2 °F 60% 29.55 in 10.0 mi South 17.3 mph 26.5 mph N/A   Mostly Cloudy
5:35 PM 68.0 °F 59.0 °F 73% 29.55 in 6.0 mi SW 15.0 mph 26.5 mph N/A   Haze
5:55 PM 68.0 °F 59.0 °F 73% 29.54 in 10.0 mi SW 11.5 mph 17.3 mph N/A   Overcast
6:15 PM 66.2 °F 59.0 °F 78% 29.55 in 3.0 mi SSW 18.4 mph 28.8 mph N/A Rain Rain
6:35 PM 68.0 °F 60.8 °F 78% 29.54 in 10.0 mi SW 15.0 mph 21.9 mph N/A   Mostly Cloudy
6:55 PM 69.8 °F 60.8 °F 73% 29.53 in 10.0 mi SW 15.0 mph - 0.01 in   Scattered Clouds
7:15 PM 69.8 °F 55.4 °F 60% 29.52 in 10.0 mi WSW 19.6 mph 26.5 mph N/A   Partly Cloudy
7:35 PM 68.0 °F 55.4 °F 64% 29.53 in 10.0 mi SW 15.0 mph - N/A   Clear
7:55 PM 68.0 °F 55.4 °F 64% 29.53 in 10.0 mi SW 11.5 mph - N/A   Clear
8:15 PM 66.2 °F 55.4 °F 68% 29.53 in 10.0 mi SW 12.7 mph - N/A   Clear
8:35 PM 66.2 °F 53.6 °F 64% 29.53 in 10.0 mi SW 11.5 mph - N/A   Clear
9:15 PM 62.6 °F 53.6 °F 72% 29.54 in 10.0 mi SW 8.1 mph - N/A   Clear
9:35 PM 60.8 °F 53.6 °F 77% 29.53 in 10.0 mi SSW 8.1 mph - N/A   Scattered Clouds
9:55 PM 60.8 °F 53.6 °F 77% 29.53 in 10.0 mi SSW 9.2 mph - N/A   Partly Cloudy
10:15 PM 59.0 °F 53.6 °F 82% 29.53 in 10.0 mi SSW 8.1 mph - N/A   Scattered Clouds
10:35 PM 59.0 °F 53.6 °F 82% 29.54 in 10.0 mi SSW 8.1 mph - N/A   Partly Cloudy
10:55 PM 59.0 °F 55.4 °F 88% 29.54 in 10.0 mi South 8.1 mph - N/A   Mostly Cloudy
11:15 PM 60.8 °F 53.6 °F 77% 29.53 in 10.0 mi SW 10.4 mph - N/A   Mostly Cloudy
11:35 PM 59.0 °F 51.8 °F 77% 29.53 in 10.0 mi SW 10.4 mph - N/A   Scattered Clouds
11:55 PM 60.8 °F 53.6 °F 77% 29.54 in 10.0 mi SW 10.4 mph - N/A   Mostly Cloudy